owner,sensor,date,latitude,longitude,vertical_datum,wind_speed,wind_to_direction,wind_speed_of_gust,qcFlag 
DISL,ioos:station:DISL:MHPA:1,2014-10-01T00:00:00Z,30.6671,-87.9365,8.5,0.9,82.9,-9999.0,'1111122,1111122,1111122' 
DISL,ioos:station:DISL:MHPA:1,2014-10-01T00:30:00Z,30.6671,-87.9365,8.5,1.34,79.84,-9999.0,'1111122,1111122,1111122' 
DISL,ioos:station:DISL:MHPA:1,2014-10-01T01:00:00Z,30.6671,-87.9365,8.5,1.07,105.4,-9999.0,'1111122,1111122,1111122' 
DISL,ioos:station:DISL:MHPA:1,2014-10-01T01:30:00Z,30.6671,-87.9365,8.5,0.92,92.5,-9999.0,'1111122,1111122,1111122' 
DISL,ioos:station:DISL:MHPA:1,2014-10-01T02:00:00Z,30.6671,-87.9365,8.5,1.06,101.0,-9999.0,'1111122,1111122,1111122' 
DISL,ioos:station:DISL:MHPA:1,2014-10-01T02:30:00Z,30.6671,-87.9365,8.5,2.07,110.9,-9999.0,'1111122,1111122,1111122' 
DISL,ioos:station:DISL:MHPA:1,2014-10-01T03:00:00Z,30.6671,-87.9365,8.5,2.02,114.1,-9999.0,'1111122,1111122,1111122' 
DISL,ioos:station:DISL:MHPA:1,2014-10-01T03:30:00Z,30.6671,-87.9365,8.5,1.4,107.0,-9999.0,'1111122,1111122,1111122' 
DISL,ioos:station:DISL:MHPA:1,2014-10-01T04:00:00Z,30.6671,-87.9365,8.5,1.54,96.2,-9999.0,'1111122,1111122,1111122' 
DISL,ioos:station:DISL:MHPA:1,2014-10-01T04:30:00Z,30.6671,-87.9365,8.5,1.57,92.1,-9999.0,'1111122,1111122,1111122' 
DISL,ioos:station:DISL:MHPA:1,2014-10-01T05:00:00Z,30.6671,-87.9365,8.5,1.46,87.5,-9999.0,'1111122,1111122,1111122' 
DISL,ioos:station:DISL:MHPA:1,2014-10-01T05:30:00Z,30.6671,-87.9365,8.5,1.38,94.2,-9999.0,'1111122,1111122,1111122' 
DISL,ioos:station:DISL:MHPA:1,2014-10-01T06:00:00Z,30.6671,-87.9365,8.5,1.51,102.1,-9999.0,'1111122,1111122,1111122' 
DISL,ioos:station:DISL:MHPA:1,2014-10-01T06:30:00Z,30.6671,-87.9365,8.5,1.75,100.6,-9999.0,'1111122,1111122,1111122' 
DISL,ioos:station:DISL:MHPA:1,2014-10-01T07:00:00Z,30.6671,-87.9365,8.5,1.39,94.6,-9999.0,'1111122,1111122,1111122' 
DISL,ioos:station:DISL:MHPA:1,2014-10-01T07:30:00Z,30.6671,-87.9365,8.5,1.63,90.7,-9999.0,'1111122,1111122,1111122' 
DISL,ioos:station:DISL:MHPA:1,2014-10-01T08:00:00Z,30.6671,-87.9365,8.5,1.27,87.7,-9999.0,'1111122,1111122,1111122' 
DISL,ioos:station:DISL:MHPA:1,2014-10-01T08:30:00Z,30.6671,-87.9365,8.5,1.15,85.3,-9999.0,'1111122,1111122,1111122' 
DISL,ioos:station:DISL:MHPA:1,2014-10-01T09:00:00Z,30.6671,-87.9365,8.5,1.43,83.6,-9999.0,'1111122,1111122,1111122' 
DISL,ioos:station:DISL:MHPA:1,2014-10-01T09:30:00Z,30.6671,-87.9365,8.5,0.56,31.43,-9999.0,'1111122,1111122,1111122' 
DISL,ioos:station:DISL:MHPA:1,2014-10-01T10:00:00Z,30.6671,-87.9365,8.5,1.08,51.63,-9999.0,'1111122,1111122,1111122' 
DISL,ioos:station:DISL:MHPA:1,2014-10-01T10:30:00Z,30.6671,-87.9365,8.5,0.98,348.2,-9999.0,'1111122,1111122,1111122' 
DISL,ioos:station:DISL:MHPA:1,2014-10-01T11:00:00Z,30.6671,-87.9365,8.5,1.27,338.2,-9999.0,'1111122,1111122,1111122' 
DISL,ioos:station:DISL:MHPA:1,2014-10-01T11:30:00Z,30.6671,-87.9365,8.5,0.5,0.184,-9999.0,'1111122,1111122,1111122' 
DISL,ioos:station:DISL:MHPA:1,2014-10-01T12:00:00Z,30.6671,-87.9365,8.5,0.86,5.076,-9999.0,'1111122,1111122,1111122' 
DISL,ioos:station:DISL:MHPA:1,2014-10-01T12:30:00Z,30.6671,-87.9365,8.5,0.5,6.206,-9999.0,'1111122,1111122,1111122' 
DISL,ioos:station:DISL:MHPA:1,2014-10-01T13:00:00Z,30.6671,-87.9365,8.5,0.57,10.82,-9999.0,'1111122,1111122,1111122' 
DISL,ioos:station:DISL:MHPA:1,2014-10-01T13:30:00Z,30.6671,-87.9365,8.5,0.69,49.08,-9999.0,'1111122,1111122,1111122' 
DISL,ioos:station:DISL:MHPA:1,2014-10-01T14:00:00Z,30.6671,-87.9365,8.5,0.82,72.88,-9999.0,'1111122,1111122,1111122' 
DISL,ioos:station:DISL:MHPA:1,2014-10-01T14:30:00Z,30.6671,-87.9365,8.5,1.56,73.61,-9999.0,'1111122,1111122,1111122' 
DISL,ioos:station:DISL:MHPA:1,2014-10-01T15:00:00Z,30.6671,-87.9365,8.5,2.17,97.4,-9999.0,'1111122,1111122,1111122' 
DISL,ioos:station:DISL:MHPA:1,2014-10-01T15:30:00Z,30.6671,-87.9365,8.5,1.49,142.8,-9999.0,'1111122,1111122,1111122' 
DISL,ioos:station:DISL:MHPA:1,2014-10-01T16:00:00Z,30.6671,-87.9365,8.5,1.34,131.0,-9999.0,'1111122,1111122,1111122' 
DISL,ioos:station:DISL:MHPA:1,2014-10-01T16:30:00Z,30.6671,-87.9365,8.5,2.05,216.8,-9999.0,'1111122,1111122,1111122' 
DISL,ioos:station:DISL:MHPA:1,2014-10-01T17:00:00Z,30.6671,-87.9365,8.5,1.86,224.3,-9999.0,'1111122,1111122,1111122' 
DISL,ioos:station:DISL:MHPA:1,2014-10-01T17:30:00Z,30.6671,-87.9365,8.5,1.77,237.0,-9999.0,'1111122,1111122,1111122' 
DISL,ioos:station:DISL:MHPA:1,2014-10-01T18:00:00Z,30.6671,-87.9365,8.5,2.93,230.4,-9999.0,'1111122,1111122,1111122' 
DISL,ioos:station:DISL:MHPA:1,2014-10-01T18:30:00Z,30.6671,-87.9365,8.5,3.78,223.8,-9999.0,'1111122,1111122,1111122' 
DISL,ioos:station:DISL:MHPA:1,2014-10-01T19:00:00Z,30.6671,-87.9365,8.5,2.39,196.1,-9999.0,'1111122,1111122,1111122' 
DISL,ioos:station:DISL:MHPA:1,2014-10-01T19:30:00Z,30.6671,-87.9365,8.5,2.05,223.1,-9999.0,'1111122,1111122,1111122' 
DISL,ioos:station:DISL:MHPA:1,2014-10-01T20:00:00Z,30.6671,-87.9365,8.5,2.94,193.7,-9999.0,'1111122,1111122,1111122' 
DISL,ioos:station:DISL:MHPA:1,2014-10-01T20:30:00Z,30.6671,-87.9365,8.5,3.59,188.8,-9999.0,'1111122,1111122,1111122' 
DISL,ioos:station:DISL:MHPA:1,2014-10-01T21:00:00Z,30.6671,-87.9365,8.5,3.92,184.5,-9999.0,'1111122,1111122,1111122' 
DISL,ioos:station:DISL:MHPA:1,2014-10-01T21:30:00Z,30.6671,-87.9365,8.5,4.96,187.1,-9999.0,'1111122,1111122,1111122' 
DISL,ioos:station:DISL:MHPA:1,2014-10-01T22:00:00Z,30.6671,-87.9365,8.5,4.15,195.1,-9999.0,'1111122,1111122,1111122' 
DISL,ioos:station:DISL:MHPA:1,2014-10-01T22:30:00Z,30.6671,-87.9365,8.5,4.34,179.2,-9999.0,'1111122,1111122,1111122' 
DISL,ioos:station:DISL:MHPA:1,2014-10-01T23:00:00Z,30.6671,-87.9365,8.5,4.24,164.2,-9999.0,'1111122,1111122,1111122' 
DISL,ioos:station:DISL:MHPA:1,2014-10-01T23:30:00Z,30.6671,-87.9365,8.5,2.79,148.3,-9999.0,'1111122,1111122,1111122' 
DISL,ioos:station:DISL:MHPA:1,2014-10-02T00:00:00Z,30.6671,-87.9365,8.5,2.08,147.2,-9999.0,'1111122,1111122,1111122' 
DISL,ioos:station:DISL:MHPA:1,2014-10-02T00:30:00Z,30.6671,-87.9365,8.5,2.41,150.2,-9999.0,'1111122,1111122,1111122' 
DISL,ioos:station:DISL:MHPA:1,2014-10-02T01:00:00Z,30.6671,-87.9365,8.5,2.68,139.1,-9999.0,'1111122,1111122,1111122' 
DISL,ioos:station:DISL:MHPA:1,2014-10-02T01:30:00Z,30.6671,-87.9365,8.5,2.05,138.3,-9999.0,'1111122,1111122,1111122' 
DISL,ioos:station:DISL:MHPA:1,2014-10-02T02:00:00Z,30.6671,-87.9365,8.5,2.2,132.8,-9999.0,'1111122,1111122,1111122' 
DISL,ioos:station:DISL:MHPA:1,2014-10-02T02:30:00Z,30.6671,-87.9365,8.5,2.41,137.1,-9999.0,'1111122,1111122,1111122' 
DISL,ioos:station:DISL:MHPA:1,2014-10-02T03:00:00Z,30.6671,-87.9365,8.5,1.58,104.1,-9999.0,'1111122,1111122,1111122' 
DISL,ioos:station:DISL:MHPA:1,2014-10-02T03:30:00Z,30.6671,-87.9365,8.5,1.4,109.7,-9999.0,'1111122,1111122,1111122' 
DISL,ioos:station:DISL:MHPA:1,2014-10-02T04:00:00Z,30.6671,-87.9365,8.5,1.69,116.4,-9999.0,'1111122,1111122,1111122' 
DISL,ioos:station:DISL:MHPA:1,2014-10-02T04:30:00Z,30.6671,-87.9365,8.5,2.63,127.9,-9999.0,'1111122,1111122,1111122' 
DISL,ioos:station:DISL:MHPA:1,2014-10-02T05:00:00Z,30.6671,-87.9365,8.5,2.27,106.0,-9999.0,'1111122,1111122,1111122' 
DISL,ioos:station:DISL:MHPA:1,2014-10-02T05:30:00Z,30.6671,-87.9365,8.5,2.44,95.3,-9999.0,'1111122,1111122,1111122' 
DISL,ioos:station:DISL:MHPA:1,2014-10-02T06:00:00Z,30.6671,-87.9365,8.5,2.71,110.8,-9999.0,'1111122,1111122,1111122' 
DISL,ioos:station:DISL:MHPA:1,2014-10-02T06:30:00Z,30.6671,-87.9365,8.5,2.45,99.2,-9999.0,'1111122,1111122,1111122' 
DISL,ioos:station:DISL:MHPA:1,2014-10-02T07:00:00Z,30.6671,-87.9365,8.5,2.73,103.5,-9999.0,'1111122,1111122,1111122' 
DISL,ioos:station:DISL:MHPA:1,2014-10-02T07:30:00Z,30.6671,-87.9365,8.5,2.46,99.6,-9999.0,'1111122,1111122,1111122' 
DISL,ioos:station:DISL:MHPA:1,2014-10-02T08:00:00Z,30.6671,-87.9365,8.5,2.22,97.7,-9999.0,'1111122,1111122,1111122' 
DISL,ioos:station:DISL:MHPA:1,2014-10-02T08:30:00Z,30.6671,-87.9365,8.5,2.71,104.6,-9999.0,'1111122,1111122,1111122' 
DISL,ioos:station:DISL:MHPA:1,2014-10-02T09:00:00Z,30.6671,-87.9365,8.5,2.62,103.4,-9999.0,'1111122,1111122,1111122' 
DISL,ioos:station:DISL:MHPA:1,2014-10-02T09:30:00Z,30.6671,-87.9365,8.5,2.23,101.4,-9999.0,'1111122,1111122,1111122' 
DISL,ioos:station:DISL:MHPA:1,2014-10-02T10:00:00Z,30.6671,-87.9365,8.5,2.23,97.3,-9999.0,'1111122,1111122,1111122' 
DISL,ioos:station:DISL:MHPA:1,2014-10-02T10:30:00Z,30.6671,-87.9365,8.5,2.08,99.2,-9999.0,'1111122,1111122,1111122' 
DISL,ioos:station:DISL:MHPA:1,2014-10-02T11:00:00Z,30.6671,-87.9365,8.5,2.36,95.8,-9999.0,'1111122,1111122,1111122' 
DISL,ioos:station:DISL:MHPA:1,2014-10-02T11:30:00Z,30.6671,-87.9365,8.5,2.48,98.6,-9999.0,'1111122,1111122,1111122' 
DISL,ioos:station:DISL:MHPA:1,2014-10-02T12:00:00Z,30.6671,-87.9365,8.5,2.47,100.3,-9999.0,'1111122,1111122,1111122' 
DISL,ioos:station:DISL:MHPA:1,2014-10-02T12:30:00Z,30.6671,-87.9365,8.5,2.38,97.1,-9999.0,'1111122,1111122,1111122' 
DISL,ioos:station:DISL:MHPA:1,2014-10-02T13:00:00Z,30.6671,-87.9365,8.5,2.12,93.2,-9999.0,'1111122,1111122,1111122' 
DISL,ioos:station:DISL:MHPA:1,2014-10-02T13:30:00Z,30.6671,-87.9365,8.5,2.28,105.7,-9999.0,'1111122,1111122,1111122' 
DISL,ioos:station:DISL:MHPA:1,2014-10-02T14:00:00Z,30.6671,-87.9365,8.5,2.92,112.4,-9999.0,'1111122,1111122,1111122' 
DISL,ioos:station:DISL:MHPA:1,2014-10-02T14:30:00Z,30.6671,-87.9365,8.5,2.72,115.8,-9999.0,'1111122,1111122,1111122' 
DISL,ioos:station:DISL:MHPA:1,2014-10-02T15:00:00Z,30.6671,-87.9365,8.5,4.74,157.5,-9999.0,'1111122,1111122,1111122' 
DISL,ioos:station:DISL:MHPA:1,2014-10-02T15:30:00Z,30.6671,-87.9365,8.5,3.8,169.4,-9999.0,'1111122,1111122,1111122' 
DISL,ioos:station:DISL:MHPA:1,2014-10-02T16:00:00Z,30.6671,-87.9365,8.5,4.17,180.8,-9999.0,'1111122,1111122,1111122' 
DISL,ioos:station:DISL:MHPA:1,2014-10-02T16:30:00Z,30.6671,-87.9365,8.5,4.19,176.9,-9999.0,'1111122,1111122,1111122' 
DISL,ioos:station:DISL:MHPA:1,2014-10-02T17:00:00Z,30.6671,-87.9365,8.5,4.38,174.8,-9999.0,'1111122,1111122,1111122' 
DISL,ioos:station:DISL:MHPA:1,2014-10-02T17:30:00Z,30.6671,-87.9365,8.5,4.39,194.4,-9999.0,'1111122,1111122,1111122' 
DISL,ioos:station:DISL:MHPA:1,2014-10-02T18:00:00Z,30.6671,-87.9365,8.5,4.65,191.0,-9999.0,'1111122,1111122,1111122' 
DISL,ioos:station:DISL:MHPA:1,2014-10-02T18:30:00Z,30.6671,-87.9365,8.5,4.7,185.2,-9999.0,'1111122,1111122,1111122' 
DISL,ioos:station:DISL:MHPA:1,2014-10-02T19:00:00Z,30.6671,-87.9365,8.5,4.67,170.9,-9999.0,'1111122,1111122,1111122' 
DISL,ioos:station:DISL:MHPA:1,2014-10-02T19:30:00Z,30.6671,-87.9365,8.5,4.47,167.3,-9999.0,'1111122,1111122,1111122' 
DISL,ioos:station:DISL:MHPA:1,2014-10-02T20:00:00Z,30.6671,-87.9365,8.5,3.85,162.6,-9999.0,'1111122,1111122,1111122' 
DISL,ioos:station:DISL:MHPA:1,2014-10-02T20:30:00Z,30.6671,-87.9365,8.5,5.08,172.5,-9999.0,'1111122,1111122,1111122' 
DISL,ioos:station:DISL:MHPA:1,2014-10-02T21:00:00Z,30.6671,-87.9365,8.5,7.33,177.5,-9999.0,'1111122,1111122,1111122' 
DISL,ioos:station:DISL:MHPA:1,2014-10-02T21:30:00Z,30.6671,-87.9365,8.5,6.2,171.7,-9999.0,'1111122,1111122,1111122' 
DISL,ioos:station:DISL:MHPA:1,2014-10-02T22:00:00Z,30.6671,-87.9365,8.5,6.29,175.6,-9999.0,'1111122,1111122,1111122' 
DISL,ioos:station:DISL:MHPA:1,2014-10-02T22:30:00Z,30.6671,-87.9365,8.5,5.11,169.8,-9999.0,'1111122,1111122,1111122' 
DISL,ioos:station:DISL:MHPA:1,2014-10-02T23:00:00Z,30.6671,-87.9365,8.5,4.87,180.3,-9999.0,'1111122,1111122,1111122' 
DISL,ioos:station:DISL:MHPA:1,2014-10-02T23:30:00Z,30.6671,-87.9365,8.5,4.59,160.5,-9999.0,'1111122,1111122,1111122' 
DISL,ioos:station:DISL:MHPA:1,2014-10-03T00:00:00Z,30.6671,-87.9365,8.5,3.69,147.3,-9999.0,'1111122,1111122,1111122' 
DISL,ioos:station:DISL:MHPA:1,2014-10-03T00:30:00Z,30.6671,-87.9365,8.5,3.76,145.4,-9999.0,'1111122,1111122,1111122' 
DISL,ioos:station:DISL:MHPA:1,2014-10-03T01:00:00Z,30.6671,-87.9365,8.5,4.2,134.8,-9999.0,'1111122,1111122,1111122' 
DISL,ioos:station:DISL:MHPA:1,2014-10-03T01:30:00Z,30.6671,-87.9365,8.5,3.17,132.8,-9999.0,'1111122,1111122,1111122' 
DISL,ioos:station:DISL:MHPA:1,2014-10-03T02:00:00Z,30.6671,-87.9365,8.5,3.26,132.6,-9999.0,'1111122,1111122,1111122' 
DISL,ioos:station:DISL:MHPA:1,2014-10-03T02:30:00Z,30.6671,-87.9365,8.5,3.06,138.1,-9999.0,'1111122,1111122,1111122' 
DISL,ioos:station:DISL:MHPA:1,2014-10-03T03:00:00Z,30.6671,-87.9365,8.5,3.48,141.8,-9999.0,'1111122,1111122,1111122' 
DISL,ioos:station:DISL:MHPA:1,2014-10-03T03:30:00Z,30.6671,-87.9365,8.5,4.41,140.2,-9999.0,'1111122,1111122,1111122' 
DISL,ioos:station:DISL:MHPA:1,2014-10-03T04:00:00Z,30.6671,-87.9365,8.5,5.09,150.8,-9999.0,'1111122,1111122,1111122' 
DISL,ioos:station:DISL:MHPA:1,2014-10-03T04:30:00Z,30.6671,-87.9365,8.5,3.75,146.8,-9999.0,'1111122,1111122,1111122' 
DISL,ioos:station:DISL:MHPA:1,2014-10-03T05:00:00Z,30.6671,-87.9365,8.5,4.02,157.1,-9999.0,'1111122,1111122,1111122' 
DISL,ioos:station:DISL:MHPA:1,2014-10-03T05:30:00Z,30.6671,-87.9365,8.5,4.54,157.7,-9999.0,'1111122,1111122,1111122' 
DISL,ioos:station:DISL:MHPA:1,2014-10-03T06:00:00Z,30.6671,-87.9365,8.5,3.99,158.9,-9999.0,'1111122,1111122,1111122' 
DISL,ioos:station:DISL:MHPA:1,2014-10-03T06:30:00Z,30.6671,-87.9365,8.5,4.25,158.8,-9999.0,'1111122,1111122,1111122' 
DISL,ioos:station:DISL:MHPA:1,2014-10-03T07:00:00Z,30.6671,-87.9365,8.5,5.89,168.0,-9999.0,'1111122,1111122,1111122' 
DISL,ioos:station:DISL:MHPA:1,2014-10-03T07:30:00Z,30.6671,-87.9365,8.5,5.49,165.4,-9999.0,'1111122,1111122,1111122' 
DISL,ioos:station:DISL:MHPA:1,2014-10-03T08:00:00Z,30.6671,-87.9365,8.5,5.64,166.5,-9999.0,'1111122,1111122,1111122' 
DISL,ioos:station:DISL:MHPA:1,2014-10-03T08:30:00Z,30.6671,-87.9365,8.5,5.65,170.4,-9999.0,'1111122,1111122,1111122' 
DISL,ioos:station:DISL:MHPA:1,2014-10-03T09:00:00Z,30.6671,-87.9365,8.5,4.49,174.0,-9999.0,'1111122,1111122,1111122' 
DISL,ioos:station:DISL:MHPA:1,2014-10-03T09:30:00Z,30.6671,-87.9365,8.5,4.8,185.1,-9999.0,'1111122,1111122,1111122' 
DISL,ioos:station:DISL:MHPA:1,2014-10-03T10:00:00Z,30.6671,-87.9365,8.5,4.7,202.4,-9999.0,'1111122,1111122,1111122' 
DISL,ioos:station:DISL:MHPA:1,2014-10-03T10:30:00Z,30.6671,-87.9365,8.5,4.57,210.2,-9999.0,'1111122,1111122,1111122' 
DISL,ioos:station:DISL:MHPA:1,2014-10-03T11:00:00Z,30.6671,-87.9365,8.5,4.18,200.1,-9999.0,'1111122,1111122,1111122' 
DISL,ioos:station:DISL:MHPA:1,2014-10-03T11:30:00Z,30.6671,-87.9365,8.5,3.8,205.0,-9999.0,'1111122,1111122,1111122' 
DISL,ioos:station:DISL:MHPA:1,2014-10-03T12:00:00Z,30.6671,-87.9365,8.5,5.75,245.9,-9999.0,'1111122,1111122,1111122' 
DISL,ioos:station:DISL:MHPA:1,2014-10-03T12:30:00Z,30.6671,-87.9365,8.5,7.39,232.4,-9999.0,'1111122,1111122,1111122' 
DISL,ioos:station:DISL:MHPA:1,2014-10-03T13:00:00Z,30.6671,-87.9365,8.5,2.71,344.9,-9999.0,'1111122,1111122,1111122' 
DISL,ioos:station:DISL:MHPA:1,2014-10-03T13:30:00Z,30.6671,-87.9365,8.5,1.89,357.8,-9999.0,'1111122,1111122,1111122' 
DISL,ioos:station:DISL:MHPA:1,2014-10-03T14:00:00Z,30.6671,-87.9365,8.5,0.06,294.6,-9999.0,'1111122,1111122,1111122' 
DISL,ioos:station:DISL:MHPA:1,2014-10-03T14:30:00Z,30.6671,-87.9365,8.5,1.18,336.3,-9999.0,'1111122,1111122,1111122' 
DISL,ioos:station:DISL:MHPA:1,2014-10-03T15:00:00Z,30.6671,-87.9365,8.5,0.98,130.4,-9999.0,'1111122,1111122,1111122' 
DISL,ioos:station:DISL:MHPA:1,2014-10-03T15:30:00Z,30.6671,-87.9365,8.5,0.78,124.5,-9999.0,'1111122,1111122,1111122' 
DISL,ioos:station:DISL:MHPA:1,2014-10-03T16:00:00Z,30.6671,-87.9365,8.5,0.73,88.9,-9999.0,'1111122,1111122,1111122' 
DISL,ioos:station:DISL:MHPA:1,2014-10-03T16:30:00Z,30.6671,-87.9365,8.5,1.38,166.4,-9999.0,'1111122,1111122,1111122' 
DISL,ioos:station:DISL:MHPA:1,2014-10-03T17:00:00Z,30.6671,-87.9365,8.5,1.3,240.5,-9999.0,'1111122,1111122,1111122' 
DISL,ioos:station:DISL:MHPA:1,2014-10-03T17:30:00Z,30.6671,-87.9365,8.5,2.49,210.2,-9999.0,'1111122,1111122,1111122' 
DISL,ioos:station:DISL:MHPA:1,2014-10-03T18:00:00Z,30.6671,-87.9365,8.5,1.41,226.2,-9999.0,'1111122,1111122,1111122' 
DISL,ioos:station:DISL:MHPA:1,2014-10-03T18:30:00Z,30.6671,-87.9365,8.5,0.87,194.0,-9999.0,'1111122,1111122,1111122' 
DISL,ioos:station:DISL:MHPA:1,2014-10-03T19:00:00Z,30.6671,-87.9365,8.5,3.52,293.6,-9999.0,'1111122,1111122,1111122' 
DISL,ioos:station:DISL:MHPA:1,2014-10-03T19:30:00Z,30.6671,-87.9365,8.5,3.92,303.2,-9999.0,'1111122,1111122,1111122' 
DISL,ioos:station:DISL:MHPA:1,2014-10-03T20:00:00Z,30.6671,-87.9365,8.5,4.13,297.9,-9999.0,'1111122,1111122,1111122' 
DISL,ioos:station:DISL:MHPA:1,2014-10-03T20:30:00Z,30.6671,-87.9365,8.5,4.61,306.8,-9999.0,'1111122,1111122,1111122' 
DISL,ioos:station:DISL:MHPA:1,2014-10-03T21:00:00Z,30.6671,-87.9365,8.5,3.51,315.0,-9999.0,'1111122,1111122,1111122' 
DISL,ioos:station:DISL:MHPA:1,2014-10-03T21:30:00Z,30.6671,-87.9365,8.5,3.64,305.6,-9999.0,'1111122,1111122,1111122' 
DISL,ioos:station:DISL:MHPA:1,2014-10-03T22:00:00Z,30.6671,-87.9365,8.5,3.77,304.0,-9999.0,'1111122,1111122,1111122' 
DISL,ioos:station:DISL:MHPA:1,2014-10-03T22:30:00Z,30.6671,-87.9365,8.5,2.8,329.1,-9999.0,'1111122,1111122,1111122' 
DISL,ioos:station:DISL:MHPA:1,2014-10-03T23:00:00Z,30.6671,-87.9365,8.5,3.66,318.4,-9999.0,'1111122,1111122,1111122' 
DISL,ioos:station:DISL:MHPA:1,2014-10-03T23:30:00Z,30.6671,-87.9365,8.5,3.66,305.7,-9999.0,'1111122,1111122,1111122' 
DISL,ioos:station:DISL:MHPA:1,2014-10-04T00:00:00Z,30.6671,-87.9365,8.5,3.67,320.8,-9999.0,'1111122,1111122,1111122' 
DISL,ioos:station:DISL:MHPA:1,2014-10-04T00:30:00Z,30.6671,-87.9365,8.5,2.59,319.9,-9999.0,'1111122,1111122,1111122' 
DISL,ioos:station:DISL:MHPA:1,2014-10-04T01:00:00Z,30.6671,-87.9365,8.5,1.88,321.8,-9999.0,'1111122,1111122,1111122' 
DISL,ioos:station:DISL:MHPA:1,2014-10-04T01:30:00Z,30.6671,-87.9365,8.5,1.6,315.2,-9999.0,'1111122,1111122,1111122' 
DISL,ioos:station:DISL:MHPA:1,2014-10-04T02:00:00Z,30.6671,-87.9365,8.5,1.33,307.9,-9999.0,'1111122,1111122,1111122' 
DISL,ioos:station:DISL:MHPA:1,2014-10-04T02:30:00Z,30.6671,-87.9365,8.5,1.87,301.3,-9999.0,'1111122,1111122,1111122' 
DISL,ioos:station:DISL:MHPA:1,2014-10-04T03:00:00Z,30.6671,-87.9365,8.5,2.17,305.8,-9999.0,'1111122,1111122,1111122' 
DISL,ioos:station:DISL:MHPA:1,2014-10-04T03:30:00Z,30.6671,-87.9365,8.5,3.11,300.4,-9999.0,'1111122,1111122,1111122' 
DISL,ioos:station:DISL:MHPA:1,2014-10-04T04:00:00Z,30.6671,-87.9365,8.5,3.2,309.9,-9999.0,'1111122,1111122,1111122' 
DISL,ioos:station:DISL:MHPA:1,2014-10-04T04:30:00Z,30.6671,-87.9365,8.5,3.59,329.3,-9999.0,'1111122,1111122,1111122' 
DISL,ioos:station:DISL:MHPA:1,2014-10-04T05:00:00Z,30.6671,-87.9365,8.5,3.16,332.8,-9999.0,'1111122,1111122,1111122' 
DISL,ioos:station:DISL:MHPA:1,2014-10-04T05:30:00Z,30.6671,-87.9365,8.5,3.03,337.9,-9999.0,'1111122,1111122,1111122' 
DISL,ioos:station:DISL:MHPA:1,2014-10-04T06:00:00Z,30.6671,-87.9365,8.5,2.52,336.5,-9999.0,'1111122,1111122,1111122' 
DISL,ioos:station:DISL:MHPA:1,2014-10-04T06:30:00Z,30.6671,-87.9365,8.5,1.84,331.5,-9999.0,'1111122,1111122,1111122' 
DISL,ioos:station:DISL:MHPA:1,2014-10-04T07:00:00Z,30.6671,-87.9365,8.5,1.4,337.7,-9999.0,'1111122,1111122,1111122' 
DISL,ioos:station:DISL:MHPA:1,2014-10-04T07:30:00Z,30.6671,-87.9365,8.5,1.77,324.8,-9999.0,'1111122,1111122,1111122' 
DISL,ioos:station:DISL:MHPA:1,2014-10-04T08:00:00Z,30.6671,-87.9365,8.5,1.44,324.2,-9999.0,'1111122,1111122,1111122' 
DISL,ioos:station:DISL:MHPA:1,2014-10-04T08:30:00Z,30.6671,-87.9365,8.5,1.99,341.8,-9999.0,'1111122,1111122,1111122' 
DISL,ioos:station:DISL:MHPA:1,2014-10-04T09:00:00Z,30.6671,-87.9365,8.5,1.56,339.8,-9999.0,'1111122,1111122,1111122' 
DISL,ioos:station:DISL:MHPA:1,2014-10-04T09:30:00Z,30.6671,-87.9365,8.5,1.87,330.5,-9999.0,'1111122,1111122,1111122' 
DISL,ioos:station:DISL:MHPA:1,2014-10-04T10:00:00Z,30.6671,-87.9365,8.5,3.39,322.9,-9999.0,'1111122,1111122,1111122' 
DISL,ioos:station:DISL:MHPA:1,2014-10-04T10:30:00Z,30.6671,-87.9365,8.5,4.4,343.1,-9999.0,'1111122,1111122,1111122' 
DISL,ioos:station:DISL:MHPA:1,2014-10-04T11:00:00Z,30.6671,-87.9365,8.5,4.43,335.4,-9999.0,'1111122,1111122,1111122' 
DISL,ioos:station:DISL:MHPA:1,2014-10-04T11:30:00Z,30.6671,-87.9365,8.5,4.98,328.9,-9999.0,'1111122,1111122,1111122' 
DISL,ioos:station:DISL:MHPA:1,2014-10-04T12:00:00Z,30.6671,-87.9365,8.5,5.5,342.4,-9999.0,'1111122,1111122,1111122' 
DISL,ioos:station:DISL:MHPA:1,2014-10-04T12:30:00Z,30.6671,-87.9365,8.5,5.64,337.0,-9999.0,'1111122,1111122,1111122' 
DISL,ioos:station:DISL:MHPA:1,2014-10-04T13:00:00Z,30.6671,-87.9365,8.5,4.66,340.1,-9999.0,'1111122,1111122,1111122' 
DISL,ioos:station:DISL:MHPA:1,2014-10-04T13:30:00Z,30.6671,-87.9365,8.5,5.26,325.6,-9999.0,'1111122,1111122,1111122' 
DISL,ioos:station:DISL:MHPA:1,2014-10-04T14:00:00Z,30.6671,-87.9365,8.5,5.54,355.3,-9999.0,'1111122,1111122,1111122' 
DISL,ioos:station:DISL:MHPA:1,2014-10-04T14:30:00Z,30.6671,-87.9365,8.5,5.73,333.9,-9999.0,'1111122,1111122,1111122' 
DISL,ioos:station:DISL:MHPA:1,2014-10-04T15:00:00Z,30.6671,-87.9365,8.5,5.37,345.6,-9999.0,'1111122,1111122,1111122' 
DISL,ioos:station:DISL:MHPA:1,2014-10-04T15:30:00Z,30.6671,-87.9365,8.5,5.17,356.2,-9999.0,'1111122,1111122,1111122' 
DISL,ioos:station:DISL:MHPA:1,2014-10-04T16:00:00Z,30.6671,-87.9365,8.5,5.07,338.6,-9999.0,'1111122,1111122,1111122' 
DISL,ioos:station:DISL:MHPA:1,2014-10-04T16:30:00Z,30.6671,-87.9365,8.5,5.42,335.0,-9999.0,'1111122,1111122,1111122' 
DISL,ioos:station:DISL:MHPA:1,2014-10-04T17:00:00Z,30.6671,-87.9365,8.5,5.59,336.8,-9999.0,'1111122,1111122,1111122' 
DISL,ioos:station:DISL:MHPA:1,2014-10-04T17:30:00Z,30.6671,-87.9365,8.5,4.74,352.0,-9999.0,'1111122,1111122,1111122' 
DISL,ioos:station:DISL:MHPA:1,2014-10-04T18:00:00Z,30.6671,-87.9365,8.5,4.64,332.0,-9999.0,'1111122,1111122,1111122' 
DISL,ioos:station:DISL:MHPA:1,2014-10-04T18:30:00Z,30.6671,-87.9365,8.5,5.54,338.2,-9999.0,'1111122,1111122,1111122' 
DISL,ioos:station:DISL:MHPA:1,2014-10-04T19:00:00Z,30.6671,-87.9365,8.5,4.75,330.1,-9999.0,'1111122,1111122,1111122' 
DISL,ioos:station:DISL:MHPA:1,2014-10-04T19:30:00Z,30.6671,-87.9365,8.5,4.96,321.6,-9999.0,'1111122,1111122,1111122' 
DISL,ioos:station:DISL:MHPA:1,2014-10-04T20:00:00Z,30.6671,-87.9365,8.5,5.45,332.3,-9999.0,'1111122,1111122,1111122' 
DISL,ioos:station:DISL:MHPA:1,2014-10-04T20:30:00Z,30.6671,-87.9365,8.5,4.62,339.9,-9999.0,'1111122,1111122,1111122' 
DISL,ioos:station:DISL:MHPA:1,2014-10-04T21:00:00Z,30.6671,-87.9365,8.5,5.6,311.2,-9999.0,'1111122,1111122,1111122' 
DISL,ioos:station:DISL:MHPA:1,2014-10-04T21:30:00Z,30.6671,-87.9365,8.5,5.51,315.6,-9999.0,'1111122,1111122,1111122' 
DISL,ioos:station:DISL:MHPA:1,2014-10-04T22:00:00Z,30.6671,-87.9365,8.5,4.86,337.3,-9999.0,'1111122,1111122,1111122' 
DISL,ioos:station:DISL:MHPA:1,2014-10-04T22:30:00Z,30.6671,-87.9365,8.5,4.53,321.6,-9999.0,'1111122,1111122,1111122' 
DISL,ioos:station:DISL:MHPA:1,2014-10-04T23:00:00Z,30.6671,-87.9365,8.5,3.28,321.6,-9999.0,'1111122,1111122,1111122' 
DISL,ioos:station:DISL:MHPA:1,2014-10-04T23:30:00Z,30.6671,-87.9365,8.5,2.7,316.8,-9999.0,'1111122,1111122,1111122' 
DISL,ioos:station:DISL:MHPA:1,2014-10-05T00:00:00Z,30.6671,-87.9365,8.5,2.14,329.0,-9999.0,'1111122,1111122,1111122' 
DISL,ioos:station:DISL:MHPA:1,2014-10-05T00:30:00Z,30.6671,-87.9365,8.5,2.06,330.4,-9999.0,'1111122,1111122,1111122' 
DISL,ioos:station:DISL:MHPA:1,2014-10-05T01:00:00Z,30.6671,-87.9365,8.5,1.71,321.0,-9999.0,'1111122,1111122,1111122' 
DISL,ioos:station:DISL:MHPA:1,2014-10-05T01:30:00Z,30.6671,-87.9365,8.5,1.23,305.7,-9999.0,'1111122,1111122,1111122' 
DISL,ioos:station:DISL:MHPA:1,2014-10-05T02:00:00Z,30.6671,-87.9365,8.5,1.8,320.8,-9999.0,'1111122,1111122,1111122' 
DISL,ioos:station:DISL:MHPA:1,2014-10-05T02:30:00Z,30.6671,-87.9365,8.5,1.25,333.3,-9999.0,'1111122,1111122,1111122' 
DISL,ioos:station:DISL:MHPA:1,2014-10-05T03:00:00Z,30.6671,-87.9365,8.5,0.84,350.7,-9999.0,'1111122,1111122,1111122' 
DISL,ioos:station:DISL:MHPA:1,2014-10-05T03:30:00Z,30.6671,-87.9365,8.5,0.56,348.2,-9999.0,'1111122,1111122,1111122' 
DISL,ioos:station:DISL:MHPA:1,2014-10-05T04:00:00Z,30.6671,-87.9365,8.5,0.9,12.43,-9999.0,'1111122,1111122,1111122' 
DISL,ioos:station:DISL:MHPA:1,2014-10-05T04:30:00Z,30.6671,-87.9365,8.5,0.58,23.9,-9999.0,'1111122,1111122,1111122' 